GW2980 Weather Reports


Display with metric or nautical units.
time (UTC)temp
F
wind
direction
speed
MPH
gust
MPH
rain 1hr
in
rain 24hr
in
rain mn
in
humidity
%
barometer
mb
20260504234535 52 0.0 0.0 0.00 0.00 0.00 67 950.0
20260504234236 52 0.0 0.0 0.00 0.00 0.00 67 950.0
20260504233936 52 0.0 0.0 0.00 0.00 0.00 67 950.0
20260504233635 52 0.0 0.0 0.00 0.00 0.00 67 950.0
20260504233335 52 0.0 0.0 0.00 0.00 0.00 67 950.4
20260504233035 52 0.0 0.0 0.00 0.00 0.00 67 950.4
20260504232735 52 0.0 0.0 0.00 0.00 0.00 67 950.4
20260504232435 52 0.0 0.0 0.00 0.00 0.00 67 950.4
20260504231835 52 0.0 0.0 0.00 0.00 0.00 67 950.4
20260504231536 52 0.0 0.0 0.00 0.00 0.00 67 950.4
20260504231235 52 0.0 0.0 0.00 0.00 0.00 67 950.4
20260504230935 52 0.0 0.0 0.00 0.00 0.00 67 950.4
20260504230336 53 0.0 0.0 0.00 0.00 0.00 66 950.0
20260504230035 53 0.0 0.0 0.00 0.00 0.00 66 950.0
20260504225736 53 0.0 0.0 0.00 0.00 0.00 66 950.0
20260504225135 53 0.0 0.0 0.00 0.00 0.00 66 950.0
20260504224836 53 0.0 0.0 0.00 0.00 0.00 66 950.0
20260504224536 53 0.0 0.0 0.00 0.00 0.00 66 950.0
20260504224238 53 0.0 0.0 0.00 0.00 0.00 66 950.0
20260504223642 53 0.0 0.0 0.00 0.00 0.00 66 950.0
20260504223341 53 0.0 0.0 0.00 0.00 0.00 66 950.0
20260504223038 53 0.0 0.0 0.00 0.00 0.00 66 950.0
20260504222742 53 0.0 0.0 0.00 0.00 0.00 66 950.0
20260504222442 53 0.0 0.0 0.00 0.00 0.00 66 950.4
20260504222136 53 0.0 0.0 0.00 0.00 0.00 66 950.4
20260504221835 53 0.0 0.0 0.00 0.00 0.00 66 950.4
20260504221535 53 0.0 0.0 0.00 0.00 0.00 66 950.4
20260504221235 53 0.0 0.0 0.00 0.00 0.00 66 950.4
20260504220635 54 0.0 0.0 0.00 0.00 0.00 64 950.0
20260504220336 54 0.0 0.0 0.00 0.00 0.00 64 950.0
20260504215435 55 0.0 0.0 0.00 0.00 0.00 63 950.0
20260504215136 55 0.0 0.0 0.00 0.00 0.00 63 950.0
20260504214836 55 0.0 0.0 0.00 0.00 0.00 63 950.0
20260504214536 55 0.0 0.0 0.00 0.00 0.00 63 950.0
20260504214236 55 0.0 0.0 0.00 0.00 0.00 63 950.0
20260504213936 55 0.0 0.0 0.00 0.00 0.00 63 950.0
20260504213636 55 0.0 0.0 0.00 0.00 0.00 63 950.0
20260504213335 55 0.0 0.0 0.00 0.00 0.00 63 950.0
20260504213036 55 0.0 0.0 0.00 0.00 0.00 63 950.0
20260504212736 55 0.0 0.0 0.00 0.00 0.00 63 950.0
20260504212436 55 0.0 0.0 0.00 0.00 0.00 62 950.2
20260504212136 55 0.0 0.0 0.00 0.00 0.00 62 950.2
20260504211536 55 0.0 0.0 0.00 0.00 0.00 62 950.0
20260504211236 55 0.0 0.0 0.00 0.00 0.00 62 950.0
20260504210935 56 0.0 0.0 0.00 0.00 0.00 59 949.0
20260504210636 56 0.0 0.0 0.00 0.00 0.00 59 949.0
20260504210336 56 0.0 0.0 0.00 0.00 0.00 59 949.0
20260504210036 56 0.0 0.0 0.00 0.00 0.00 59 949.0
20260504205736 56 0.0 0.0 0.00 0.00 0.00 59 949.0
20260504205435 56 0.0 0.0 0.00 0.00 0.00 57 949.0
20260504204836 56 0.0 0.0 0.00 0.00 0.00 57 949.0
20260504204536 56 0.0 0.0 0.00 0.00 0.00 53 949.0
20260504204236 56 0.0 0.0 0.00 0.00 0.00 53 949.0
20260504203636 57 0.0 0.0 0.00 0.00 0.00 55 949.0
20260504203336 57 0.0 0.0 0.00 0.00 0.00 55 949.0
20260504202736 57 0.0 0.0 0.00 0.00 0.00 55 949.0
20260504202435 57 0.0 0.0 0.00 0.00 0.00 54 948.0
20260504202136 57 0.0 0.0 0.00 0.00 0.00 54 948.0
20260504201836 57 0.0 0.0 0.00 0.00 0.00 54 948.0
20260504201536 57 0.0 0.0 0.00 0.00 0.00 54 948.0
20260504201236 57 0.0 0.0 0.00 0.00 0.00 54 948.0
20260504200936 57 0.0 0.0 0.00 0.00 0.00 54 948.0
20260504200636 57 0.0 0.0 0.00 0.00 0.00 61 948.0
20260504200336 57 0.0 0.0 0.00 0.00 0.00 55 948.0
20260504200035 57 0.0 0.0 0.00 0.00 0.00 55 948.0
20260504195736 58 0.0 0.0 0.00 0.00 0.00 55 948.0
20260504195436 58 0.0 0.0 0.00 0.00 0.00 55 948.0
20260504195136 58 0.0 0.0 0.00 0.00 0.00 55 948.0
20260504194835 58 0.0 0.0 0.00 0.00 0.00 55 948.0
20260504194536 58 0.0 0.0 0.00 0.00 0.00 55 948.0
20260504194236 58 0.0 0.0 0.00 0.00 0.00 55 948.0
20260504193936 58 0.0 0.0 0.00 0.00 0.00 55 948.0
20260504193636 58 0.0 0.0 0.00 0.00 0.00 55 948.6
20260504193035 58 0.0 0.0 0.00 0.00 0.00 54 948.0
20260504192735 58 0.0 0.0 0.00 0.00 0.00 54 948.0
20260504192135 59 0.0 0.0 0.00 0.00 0.00 51 948.0
20260504191835 59 0.0 0.0 0.00 0.00 0.00 51 948.0
20260504190936 59 0.0 0.0 0.00 0.00 0.00 49 947.0
20260504190636 59 0.0 0.0 0.00 0.00 0.00 49 947.0
20260504190336 59 0.0 0.0 0.00 0.00 0.00 49 947.0
20260504190035 59 0.0 0.0 0.00 0.00 0.00 49 947.0
20260504185736 60 0.0 0.0 0.00 0.00 0.00 47 947.8
20260504185436 60 0.0 0.0 0.00 0.00 0.00 47 947.8
20260504185135 60 0.0 0.0 0.00 0.00 0.00 47 947.8
20260504184836 60 0.0 0.0 0.00 0.00 0.00 47 947.8
20260504184536 60 0.0 0.0 0.00 0.00 0.00 47 947.8
20260504184235 60 0.0 0.0 0.00 0.00 0.00 47 947.8
20260504183936 61 0.0 0.0 0.00 0.00 0.00 46 947.0
20260504183636 61 0.0 0.0 0.00 0.00 0.00 46 947.0
20260504183336 61 0.0 0.0 0.00 0.00 0.00 46 947.0
20260504183036 61 0.0 0.0 0.00 0.00 0.00 46 947.0
20260504182736 61 0.0 0.0 0.00 0.00 0.00 46 947.0
20260504182436 61 0.0 0.0 0.00 0.00 0.00 46 947.0
20260504182136 61 0.0 0.0 0.00 0.00 0.00 46 947.0
20260504181836 61 0.0 0.0 0.00 0.00 0.00 46 947.0
20260504181536 61 0.0 0.0 0.00 0.00 0.00 46 947.0
20260504181236 61 0.0 0.0 0.00 0.00 0.00 45 947.5
20260504180935 61 0.0 0.0 0.00 0.00 0.00 45 947.5
20260504180635 61 0.0 0.0 0.00 0.00 0.00 45 947.5
20260504180336 61 0.0 0.0 0.00 0.00 0.00 45 947.5
20260504180036 61 0.0 0.0 0.00 0.00 0.00 45 947.5
20260504175436 61 0.0 0.0 0.00 0.00 0.00 45 947.5
20260504174836 61 0.0 0.0 0.00 0.00 0.00 45 947.5
20260504174236 62 0.0 0.0 0.00 0.00 0.00 44 947.0
20260504173936 63 0.0 0.0 0.00 0.00 0.00 44 947.0
20260504173636 63 0.0 0.0 0.00 0.00 0.00 44 947.0
20260504173335 63 0.0 0.0 0.00 0.00 0.00 44 947.0
20260504173036 63 0.0 0.0 0.00 0.00 0.00 44 947.0
20260504172735 63 0.0 0.0 0.00 0.00 0.00 44 947.0
20260504171236 63 0.0 0.0 0.00 0.00 0.00 43 947.0
20260504170635 64 0.0 0.0 0.00 0.00 0.00 41 947.0
20260504170335 64 0.0 0.0 0.00 0.00 0.00 41 947.0
20260504160336 65 0.0 0.0 0.00 0.00 0.00 44 947.0
20260504150635 66 0.0 0.0 0.00 0.00 0.00 46 947.0
20260504141236 65 0.0 0.0 0.00 0.00 0.00 53 948.0
20260504140636 64 0.0 0.0 0.00 0.00 0.00 53 948.0
20260504140336 65 0.0 0.0 0.00 0.00 0.00 52 948.0
20260504130635 64 0.0 0.0 0.00 0.00 0.00 55 948.0
20260504130335 64 0.0 0.0 0.00 0.00 0.00 55 948.0
20260504110636 67 0.0 0.0 0.00 0.00 0.00 46 948.0
20260504110336 67 0.0 0.0 0.00 0.00 0.00 46 948.0
20260504081835 59 0.0 0.0 0.00 0.00 0.00 65 949.0
20260504081236 59 0.0 0.0 0.00 0.00 0.00 65 949.0
20260504080936 59 0.0 0.0 0.00 0.00 0.00 65 949.0
20260504080635 59 0.0 0.0 0.00 0.00 0.00 65 949.0
20260504080336 59 0.0 0.0 0.00 0.00 0.00 65 949.0
20260504070336 59 0.0 0.0 0.00 0.00 0.00 69 948.0
20260504050336 56 0.0 0.0 0.00 0.00 0.00 74 948.0
20260504045736 56 0.0 0.0 0.00 0.00 0.00 74 948.0
20260504045436 56 0.0 0.0 0.00 0.00 0.00 74 948.0
20260504045136 58 0.0 0.0 0.00 0.00 0.00 72 947.9
20260504044836 58 0.0 0.0 0.00 0.00 0.00 72 947.9
20260504044536 58 0.0 0.0 0.00 0.00 0.00 72 947.9
20260504044236 58 0.0 0.0 0.00 0.00 0.00 72 947.9
20260504043935 58 0.0 0.0 0.00 0.00 0.00 72 947.9
20260504043335 58 0.0 0.0 0.00 0.00 0.00 72 947.9
20260504043036 58 0.0 0.0 0.00 0.00 0.00 72 947.9
20260504042735 57 0.0 0.0 0.00 0.00 0.00 73 947.0
20260504042136 57 0.0 0.0 0.00 0.00 0.00 73 947.0
20260504041836 57 0.0 0.0 0.00 0.00 0.00 73 947.0
20260504041535 57 0.0 0.0 0.00 0.00 0.00 73 947.0
20260504041235 57 0.0 0.0 0.00 0.00 0.00 73 947.0
20260504040936 57 0.0 0.0 0.00 0.00 0.00 73 947.0
20260504040636 57 0.0 0.0 0.00 0.00 0.00 73 947.0
20260504040335 57 0.0 0.0 0.00 0.00 0.00 73 947.0
20260504040035 57 0.0 0.0 0.00 0.00 0.00 73 947.0
20260504035736 57 0.0 0.0 0.00 0.00 0.00 73 948.1
20260504035436 57 0.0 0.0 0.00 0.00 0.00 73 948.1
20260504035136 57 0.0 0.0 0.00 0.00 0.00 73 948.1
20260504034836 57 0.0 0.0 0.00 0.00 0.00 73 948.1
20260504033935 57 0.0 0.0 0.00 0.00 0.00 73 948.1
20260504033636 57 0.0 0.0 0.00 0.00 0.00 73 948.1
20260504033335 58 0.0 0.0 0.00 0.00 0.00 72 948.0
20260504033036 58 0.0 0.0 0.00 0.00 0.00 72 948.0
20260504032735 58 0.0 0.0 0.00 0.00 0.00 72 948.0
20260504032436 58 0.0 0.0 0.00 0.00 0.00 72 948.0
20260504032136 58 0.0 0.0 0.00 0.00 0.00 72 948.0
20260504031835 58 0.0 0.0 0.00 0.00 0.00 72 948.0
20260504031536 58 0.0 0.0 0.00 0.00 0.00 72 948.0
20260504031236 57 0.0 0.0 0.00 0.00 0.00 73 948.0
20260504030936 57 0.0 0.0 0.00 0.00 0.00 73 948.0
20260504030636 57 0.0 0.0 0.00 0.00 0.00 73 948.0
20260504030036 57 0.0 0.0 0.00 0.00 0.00 73 948.0
20260504025436 57 0.0 0.0 0.00 0.00 0.00 73 948.0
20260504024835 56 0.0 0.0 0.00 0.00 0.00 74 948.4
20260504024536 56 0.0 0.0 0.00 0.00 0.00 74 948.4
20260504024235 56 0.0 0.0 0.00 0.00 0.00 74 948.4
20260504023635 56 0.0 0.0 0.00 0.00 0.00 74 948.4
20260504023336 56 0.0 0.0 0.00 0.00 0.00 73 948.0
20260504023036 56 0.0 0.0 0.00 0.00 0.00 73 948.0
20260504022436 56 0.0 0.0 0.00 0.00 0.00 73 948.0
20260504022136 56 0.0 0.0 0.00 0.00 0.00 73 948.0
20260504021536 56 0.0 0.0 0.00 0.00 0.00 73 948.0
20260504021236 56 0.0 0.0 0.00 0.00 0.00 73 948.0
20260504020636 56 0.0 0.0 0.00 0.00 0.00 73 948.0
20260504020336 56 0.0 0.0 0.00 0.00 0.00 73 948.0
20260504020036 56 0.0 0.0 0.00 0.00 0.00 73 948.0
20260504015735 56 0.0 0.0 0.00 0.00 0.00 73 948.0
20260504015435 56 0.0 0.0 0.00 0.00 0.00 73 948.0
20260504015136 56 0.0 0.0 0.00 0.00 0.00 73 948.0
20260504014836 56 0.0 0.0 0.00 0.00 0.00 73 948.0
20260504014535 56 0.0 0.0 0.00 0.00 0.00 73 948.6
20260504014235 56 0.0 0.0 0.00 0.00 0.00 74 948.0
20260504013936 56 0.0 0.0 0.00 0.00 0.00 74 948.0
20260504013636 56 0.0 0.0 0.00 0.00 0.00 74 948.0
20260504013036 56 0.0 0.0 0.00 0.00 0.00 74 948.0
20260504012735 56 0.0 0.0 0.00 0.00 0.00 74 948.0
20260504012435 56 0.0 0.0 0.00 0.00 0.00 74 948.0
20260504012136 56 0.0 0.0 0.00 0.00 0.00 74 948.0
20260504011836 56 0.0 0.0 0.00 0.00 0.00 74 948.0
20260504011536 56 0.0 0.0 0.00 0.00 0.00 74 948.0
20260504011236 56 0.0 0.0 0.00 0.00 0.00 74 948.0
20260504010636 56 0.0 0.0 0.00 0.00 0.00 74 948.0
20260504010036 57 0.0 0.0 0.00 0.00 0.00 73 948.0
20260504005436 57 0.0 0.0 0.00 0.00 0.00 73 948.0
20260504005135 57 0.0 0.0 0.00 0.00 0.00 72 948.6
20260504004836 58 0.0 0.0 0.00 0.00 0.00 71 948.0
20260504004236 58 0.0 0.0 0.00 0.00 0.00 71 948.0
20260504003935 59 0.0 0.0 0.00 0.00 0.00 69 948.0
20260504003636 59 0.0 0.0 0.00 0.00 0.00 69 948.0
20260504003035 59 0.0 0.0 0.00 0.00 0.00 69 948.0
20260504002735 59 0.0 0.0 0.00 0.00 0.00 69 948.0
20260504002436 59 0.0 0.0 0.00 0.00 0.00 69 948.0
20260504002136 59 0.0 0.0 0.00 0.00 0.00 69 948.0
20260504001836 59 0.0 0.0 0.00 0.00 0.00 69 948.0
20260504001235 59 0.0 0.0 0.00 0.00 0.00 69 948.0
20260504000936 58 0.0 0.0 0.00 0.00 0.00 69 948.7
20260504000635 58 0.0 0.0 0.00 0.00 0.00 69 948.7
20260504000336 58 0.0 0.0 0.00 0.00 0.00 69 948.7
20260504000036 58 0.0 0.0 0.00 0.00 0.00 69 948.7
20260503235436 58 0.0 0.0 0.00 0.00 0.00 69 948.7
20260503235136 58 0.0 0.0 0.00 0.00 0.00 67 948.0